Lid_Strength_Index
2 2 2 2 2 2 2 1 1 1 1 1 1 1 0 0 1 1 4 3 2 -1 -0 2 2 2 2 4 4 4 6 7 7 7 6 4 5 4 3 4 3 3 3 2 1
3 2 2 2 2 2 2 2 1 1 1 1 1 1 1 0 2 3 0 -2 -3 -2 2 3 4 3 3 4 4 5 5 7 5 5 5 4 4 4 4 4 4 3 2 2 2
3 3 3 2 2 2 2 2 1 1 1 1 1 1 0 0 3 4 -3 -4 -3 -1 2 2 3 3 4 3 4 5 6 5 5 4 4 4 4 3 4 5 4 4 3 2 2
3 3 3 2 2 2 2 2 1 1 1 1 1 0 0 1 7 3 -4 -4 -4 -0 1 2 2 4 4 5 4 5 4 4 4 4 4 5 4 4 4 4 2 2 2 2 2
3 3 3 3 2 2 2 2 2 1 1 1 1 0 1 4 4 1 -3 -2 -0 1 2 2 3 3 5 5 4 5 5 4 4 4 4 3 4 4 4 3 2 2 3 3 2
3 3 3 3 2 2 2 2 2 2 2 1 0 1 3 6 1 0 1 1 1 1 2 2 3 3 4 4 5 4 4 4 4 4 4 4 4 4 4 2 3 2 3 2 2
3 3 3 2 2 2 2 2 2 2 2 1 -0 1 3 4 1 0 1 1 1 2 2 2 2 3 3 4 3 4 5 5 4 4 5 4 6 6 4 3 3 3 3 2 2
3 3 3 2 2 2 2 2 2 2 1 0 -0 1 4 1 0 1 1 1 1 1 1 1 1 2 3 3 4 5 5 7 5 5 5 5 8 5 3 4 4 4 3 3 2
3 3 3 2 2 2 2 2 2 1 -0 -0 2 3 4 1 3 2 1 2 2 1 2 2 2 3 4 5 6 6 8 8 7 5 5 5 7 5 4 4 5 4 4 3 3
3 3 3 2 2 2 3 2 1 1 1 2 3 3 3 4 2 2 1 2 2 2 2 3 3 5 5 6 9 9 8 8 8 6 5 6 7 6 4 5 5 4 4 3 3
3 3 3 2 2 3 2 0 2 2 2 4 4 4 3 2 2 2 2 2 2 3 5 4 5 7 7 6 6 7 8 8 7 6 6 7 7 6 5 5 5 4 4 4 4
3 3 3 2 2 3 1 1 2 2 4 3 3 3 2 2 4 3 1 4 4 6 5 5 7 6 5 6 6 7 8 8 7 6 6 7 8 6 5 5 5 5 4 4 3
4 3 3 3 3 1 1 1 -0 1 4 4 3 3 3 2 4 4 2 3 5 6 6 7 6 5 6 6 7 7 8 8 8 7 6 7 8 8 6 5 4 4 3 3 3
4 4 3 3 2 -0 1 -0 -0 0 6 6 5 3 3 3 5 2 2 3 5 6 6 6 6 6 7 7 6 8 7 7 8 8 10 7 11 8 7 6 6 5 4 4 3
4 4 4 4 -0 1 1 -1 -0 1 12 5 5 2 3 5 4 4 2 3 6 6 6 7 7 7 7 7 7 8 7 8 8 8 8 8 10 9 7 8 7 5 5 4 3
4 4 4 1 -1 1 -0 -0 1 8 13 7 5 5 5 5 5 4 4 2 3 5 5 6 5 6 7 7 7 7 8 8 8 8 11 9 9 9 8 7 6 5 4 4 3
4 4 3 1 1 0 -1 1 8 11 6 7 7 6 6 7 6 5 6 6 7 9 9 7 7 6 6 7 7 7 9 11 11 11 12 8 10 9 7 6 6 5 5 4 3
5 5 4 -0 -1 -1 0 5 11 8 8 6 6 6 7 6 6 6 7 7 6 7 8 10 11 7 7 8 9 9 9 11 15 13 12 8 11 10 6 5 5 4 4 3 3
5 -1 -1 -0 -1 -1 3 9 9 8 6 7 6 8 8 7 7 7 7 8 7 6 9 9 10 7 7 7 7 9 8 8 11 10 12 9 9 7 6 6 5 5 4 4 3
-0 0 1 -0 -1 1 5 9 7 5 6 6 9 7 9 8 8 8 8 7 7 6 5 8 11 8 8 7 6 7 7 10 8 16 14 10 10 10 9 7 6 5 5 4 3
1 3 1 -1 -1 3 7 7 6 6 5 7 8 8 8 8 8 8 8 7 6 7 5 6 8 9 8 9 9 8 8 8 9 10 13 14 11 7 7 6 6 5 4 4 3
1 5 0 -1 5 4 6 6 7 6 5 6 6 6 7 7 8 8 9 7 6 6 7 6 7 10 10 7 7 7 8 9 11 13 10 11 12 6 6 5 5 5 4 3 3
3 3 -0 0 7 6 6 6 6 6 6 6 7 6 6 7 9 8 7 6 5 6 7 6 8 12 10 8 7 8 7 7 8 9 13 15 12 5 5 5 5 5 5 3 3
3 6 3 1 3 6 7 7 7 6 6 6 6 5 6 7 6 8 7 7 5 5 7 5 8 9 11 10 8 9 8 8 8 13 12 11 10 7 6 6 5 5 4 3 3
3 5 5 6 5 5 5 6 7 7 6 5 6 6 7 8 8 8 7 7 6 6 5 6 9 8 8 8 8 8 8 8 9 9 12 10 9 7 6 6 5 4 4 4 3
4 5 3 4 5 6 6 6 7 6 6 6 7 6 6 7 7 8 7 7 7 6 6 6 8 8 9 8 8 9 8 8 8 8 8 8 9 5 5 4 4 4 4 4 3
3 2 3 6 6 6 6 6 6 5 6 5 5 6 7 7 6 6 5 6 6 7 7 7 9 10 12 9 9 12 9 8 8 7 8 11 7 5 6 5 5 4 4 4 4